Location: Newark
(37.0833°N, 15.2833°E)
Time: 14:41:06
(UTC+00:00)

Hubble Space Telescope - Visible Passes

Search period start: 18 September 2020 00:00
Search period end: 28 September 2020 00:00
Orbit: 536 x 540 km, 28.5° (Epoch: 17 September)

Date Brightness Start Highest point End Pass type
(mag) Time Alt. Az. Time Alt. Az. Time Alt. Az.
26 Sep 3.3 02:54:27 12° SSE 02:54:29 12° SSE 02:56:05 10° SE visible
27 Sep 3.2 02:44:26 13° SSE 02:44:26 13° SSE 02:45:52 10° SE visible
27 Sep 2.5 04:20:55 10° SW 04:24:14 23° S 04:27:32 10° ESE visible
